Euro IV — IQNH — position and weather

sailwx.info

Track history (hours):
 
Tides and Currents Weather Stations Pressure Air Temp Water Temp Dewpoint Dewpoint Depression Visibility Wind Speed Wind Dir Waves Ship Positions

Euro IV

Last reported at 2014-Aug-01 16:34 UTC. Time now 2014-Aug-02 04:36 UTC.
Position N 44°03' E 009°51'.

Length 25 m; draft 1.3 m.

Type: Passenger vessel. MMSI: 247131500.

Date/timePositionNaut miles runAvg speedWind from/ knotsBaromVisibWave heightAir tempDewpointWater temp
2014-Aug-01 16:34N 44°03' E 009°51'3 3.3
2014-Aug-01 15:33N 44°06' E 009°50'4 3.9
2014-Aug-01 14:33N 44°02' E 009°51'2 2.1
2014-Aug-01 13:33N 44°04' E 009°51'2 2.1
2014-Aug-01 12:33N 44°02' E 009°51'4 4.0
2014-Aug-01 11:33N 44°06' E 009°50'0 0.0
2014-Aug-01 10:33N 44°06' E 009°50'0 0.0
2014-Aug-01 09:34N 44°06' E 009°50'3 2.7
2014-Aug-01 08:34N 44°04' E 009°51'0 0.3
2014-Aug-01 07:33N 44°04' E 009°51'2 2.3
2014-Aug-01 06:33N 44°06' E 009°50'1 0.0
2014-Jul-31 14:33N 44°06' E 009°50'3 3.2
2014-Jul-31 13:33N 44°03' E 009°51'4 3.5
2014-Jul-31 12:33N 44°06' E 009°50'4 3.5
2014-Jul-31 11:33N 44°05' E 009°45'5 4.7
2014-Jul-31 10:32N 44°08' E 009°41'1 1.2
2014-Jul-31 09:33N 44°09' E 009°39'0 0.1
2014-Jul-31 08:33N 44°09' E 009°39'7 7.0
2014-Jul-31 07:33N 44°04' E 009°47'3 3.3
2014-Jul-31 06:34N 44°03' E 009°51'  
2014-Jul-28 17:03N 44°06' E 009°50'3 6.1
2014-Jul-28 16:34N 44°04' E 009°47'7 6.9
2014-Jul-28 15:33N 44°09' E 009°39'4 4.0
2014-Jul-28 14:27N 44°06' E 009°44'8 8.5
2014-Jul-28 13:33N 44°04' E 009°54'0 0.1
2014-Jul-28 12:33N 44°04' E 009°54'0 0.2
2014-Jul-28 11:34N 44°04' E 009°55'3 3.4
2014-Jul-28 10:33N 44°03' E 009°50'3 3.1
2014-Jul-28 09:34N 44°06' E 009°50'0 0.0
2014-Jul-28 08:33N 44°06' E 009°50'0 0.0
2014-Jul-27 17:18N 44°06' E 009°50'2 2.8
2014-Jul-27 16:34N 44°04' E 009°51'2 2.0
2014-Jul-27 15:33N 44°06' E 009°50'4 3.9
2014-Jul-27 14:33N 44°02' E 009°51'4 4.0
2014-Jul-27 13:33N 44°06' E 009°50'0 0.0
2014-Jul-27 12:33N 44°06' E 009°50'0 0.1
2014-Jul-27 11:33N 44°06' E 009°50'0 0.1
2014-Jul-27 10:33N 44°06' E 009°50'4 3.7
2014-Jul-27 09:34N 44°03' E 009°52'4 3.7
2014-Jul-27 08:33N 44°06' E 009°50'4 3.9
2014-Jul-27 07:34N 44°03' E 009°51'4 3.8
2014-Jul-27 06:33N 44°06' E 009°50'0 0.0
2014-Jul-26 07:12N 44°06' E 009°50'3 0.2
2014-Jul-25 16:33N 44°04' E 009°51'3 2.7
2014-Jul-25 15:33N 44°06' E 009°50'4 3.9
2014-Jul-25 14:33N 44°02' E 009°51'1 1.5
2014-Jul-25 13:33N 44°04' E 009°51'1 1.0
2014-Jul-25 12:33N 44°03' E 009°51'4 3.7
2014-Jul-25 11:33N 44°06' E 009°50'0 0.0
2014-Jul-25 10:33N 44°06' E 009°50'0 0.1
2014-Jul-25 09:34N 44°06' E 009°50'2 2.4
2014-Jul-25 08:34N 44°04' E 009°51'0 0.1
2014-Jul-25 07:33N 44°04' E 009°51'4 0.2
2014-Jul-24 16:33N 44°04' E 009°46'7 6.7
2014-Jul-24 15:33N 44°09' E 009°39'4 4.2
2014-Jul-24 14:30N 44°06' E 009°44'8 7.9
2014-Jul-24 13:33N 44°04' E 009°54'0 0.0
2014-Jul-24 12:34N 44°04' E 009°54'0 0.1
2014-Jul-24 11:33N 44°04' E 009°55'3 3.4
2014-Jul-24 10:33N 44°03' E 009°50'3 3.1
2014-Jul-24 09:33N 44°06' E 009°50'3 3.3
2014-Jul-24 08:33N 44°03' E 009°51'3 3.1
2014-Jul-24 07:33N 44°04' E 009°55'4 4.0
2014-Jul-24 06:33N 44°06' E 009°50'0 0.0
2014-Jul-23 16:33N 44°06' E 009°50'5 5.2
2014-Jul-23 15:30N 44°07' E 009°42'1110.9
2014-Jul-23 14:32N 44°13' E 009°31'1413.2
2014-Jul-23 13:28N 44°20' E 009°13'1 0.2
2014-Jul-23 10:33N 44°19' E 009°13'5 4.6
2014-Jul-23 09:33N 44°16' E 009°19'1512.0
2014-Jul-23 08:20N 44°09' E 009°36'6 7.7
2014-Jul-23 07:33N 44°06' E 009°44'4 0.5
2014-Jul-22 22:21N 44°06' E 009°50'3 3.9
2014-Jul-22 21:33N 44°03' E 009°50'0 0.0
2014-Jul-22 20:33N 44°03' E 009°50'0 0.0
2014-Jul-22 19:33N 44°03' E 009°50'0 0.0
2014-Jul-22 18:33N 44°03' E 009°50'  
Track history (hours):
 
Tides and Currents Weather Stations Pressure Air Temp Water Temp Dewpoint Dewpoint Depression Visibility Wind Speed Wind Dir Waves Ship Positions

Euro IV

Last reported at 2014-Aug-01 16:34 UTC. Time now 2014-Aug-02 04:36 UTC.
Position N 44°03' E 009°51'.

Length 25 m; draft 1.3 m.

Type: Passenger vessel. MMSI: 247131500.

Date/timePositionNaut miles runAvg speedWind from/ knotsBaromVisibWave heightAir tempDewpointWater temp
2014-Aug-01 16:34N 44°03' E 009°51'3 3.3
2014-Aug-01 15:33N 44°06' E 009°50'4 3.9
2014-Aug-01 14:33N 44°02' E 009°51'2 2.1
2014-Aug-01 13:33N 44°04' E 009°51'2 2.1
2014-Aug-01 12:33N 44°02' E 009°51'4 4.0
2014-Aug-01 11:33N 44°06' E 009°50'0 0.0
2014-Aug-01 10:33N 44°06' E 009°50'0 0.0
2014-Aug-01 09:34N 44°06' E 009°50'3 2.7
2014-Aug-01 08:34N 44°04' E 009°51'0 0.3
2014-Aug-01 07:33N 44°04' E 009°51'2 2.3
2014-Aug-01 06:33N 44°06' E 009°50'1 0.0
2014-Jul-31 14:33N 44°06' E 009°50'3 3.2
2014-Jul-31 13:33N 44°03' E 009°51'4 3.5
2014-Jul-31 12:33N 44°06' E 009°50'4 3.5
2014-Jul-31 11:33N 44°05' E 009°45'5 4.7
2014-Jul-31 10:32N 44°08' E 009°41'1 1.2
2014-Jul-31 09:33N 44°09' E 009°39'0 0.1
2014-Jul-31 08:33N 44°09' E 009°39'7 7.0
2014-Jul-31 07:33N 44°04' E 009°47'3 3.3
2014-Jul-31 06:34N 44°03' E 009°51'  
2014-Jul-28 17:03N 44°06' E 009°50'3 6.1
2014-Jul-28 16:34N 44°04' E 009°47'7 6.9
2014-Jul-28 15:33N 44°09' E 009°39'4 4.0
2014-Jul-28 14:27N 44°06' E 009°44'8 8.5
2014-Jul-28 13:33N 44°04' E 009°54'0 0.1
2014-Jul-28 12:33N 44°04' E 009°54'0 0.2
2014-Jul-28 11:34N 44°04' E 009°55'3 3.4
2014-Jul-28 10:33N 44°03' E 009°50'3 3.1
2014-Jul-28 09:34N 44°06' E 009°50'0 0.0
2014-Jul-28 08:33N 44°06' E 009°50'0 0.0
2014-Jul-27 17:18N 44°06' E 009°50'2 2.8
2014-Jul-27 16:34N 44°04' E 009°51'2 2.0
2014-Jul-27 15:33N 44°06' E 009°50'4 3.9
2014-Jul-27 14:33N 44°02' E 009°51'4 4.0
2014-Jul-27 13:33N 44°06' E 009°50'0 0.0
2014-Jul-27 12:33N 44°06' E 009°50'0 0.1
2014-Jul-27 11:33N 44°06' E 009°50'0 0.1
2014-Jul-27 10:33N 44°06' E 009°50'4 3.7
2014-Jul-27 09:34N 44°03' E 009°52'4 3.7
2014-Jul-27 08:33N 44°06' E 009°50'4 3.9
2014-Jul-27 07:34N 44°03' E 009°51'4 3.8
2014-Jul-27 06:33N 44°06' E 009°50'0 0.0
2014-Jul-26 07:12N 44°06' E 009°50'3 0.2
2014-Jul-25 16:33N 44°04' E 009°51'3 2.7
2014-Jul-25 15:33N 44°06' E 009°50'4 3.9
2014-Jul-25 14:33N 44°02' E 009°51'1 1.5
2014-Jul-25 13:33N 44°04' E 009°51'1 1.0
2014-Jul-25 12:33N 44°03' E 009°51'4 3.7
2014-Jul-25 11:33N 44°06' E 009°50'0 0.0
2014-Jul-25 10:33N 44°06' E 009°50'0 0.1
2014-Jul-25 09:34N 44°06' E 009°50'2 2.4
2014-Jul-25 08:34N 44°04' E 009°51'0 0.1
2014-Jul-25 07:33N 44°04' E 009°51'4 0.2
2014-Jul-24 16:33N 44°04' E 009°46'7 6.7
2014-Jul-24 15:33N 44°09' E 009°39'4 4.2
2014-Jul-24 14:30N 44°06' E 009°44'8 7.9
2014-Jul-24 13:33N 44°04' E 009°54'0 0.0
2014-Jul-24 12:34N 44°04' E 009°54'0 0.1
2014-Jul-24 11:33N 44°04' E 009°55'3 3.4
2014-Jul-24 10:33N 44°03' E 009°50'3 3.1
2014-Jul-24 09:33N 44°06' E 009°50'3 3.3
2014-Jul-24 08:33N 44°03' E 009°51'3 3.1
2014-Jul-24 07:33N 44°04' E 009°55'4 4.0
2014-Jul-24 06:33N 44°06' E 009°50'0 0.0
2014-Jul-23 16:33N 44°06' E 009°50'5 5.2
2014-Jul-23 15:30N 44°07' E 009°42'1110.9
2014-Jul-23 14:32N 44°13' E 009°31'1413.2
2014-Jul-23 13:28N 44°20' E 009°13'1 0.2
2014-Jul-23 10:33N 44°19' E 009°13'5 4.6
2014-Jul-23 09:33N 44°16' E 009°19'1512.0
2014-Jul-23 08:20N 44°09' E 009°36'6 7.7
2014-Jul-23 07:33N 44°06' E 009°44'4 0.5
2014-Jul-22 22:21N 44°06' E 009°50'3 3.9
2014-Jul-22 21:33N 44°03' E 009°50'0 0.0
2014-Jul-22 20:33N 44°03' E 009°50'0 0.0
2014-Jul-22 19:33N 44°03' E 009°50'0 0.0
2014-Jul-22 18:33N 44°03' E 009°50'  

Dump ship's entire track history